DW4395 Weather Reports


time (UTC)temp
C
wind
direction
speed
KPH
gust
KPH
rain 1hr
cm
rain 24hr
cm
rain mn
cm
humidity
%
barometer
mb
20260504205521 15 0.0 0.0 0.00 0.79 0.36 99 1019.1
20260504204521 15 0.0 0.0 0.00 0.79 0.36 98 1018.8
20260504203702 15 0.0 0.0 0.00 0.79 0.36 98 1018.7
20260504202521 15 0.0 0.0 0.00 0.79 0.36 98 1018.6
20260504201521 15 0.0 0.0 0.00 0.79 0.36 98 1018.7
20260504200520 15 0.0 0.0 0.00 0.79 0.36 98 1018.6
20260504195702 16 0.0 0.0 0.00 0.79 0.36 98 1018.3
20260504194520 16 0.0 0.0 0.00 0.79 0.36 98 1018.5
20260504193522 16 0.0 0.0 0.00 0.79 0.36 99 1018.3
20260504192521 16 0.0 0.0 0.00 0.79 0.36 98 1018.3
20260504191522 16 0.0 0.0 0.00 0.79 0.36 99 1018.3
20260504190522 16 0.0 0.0 0.00 0.79 0.36 99 1018.2
20260504185521 16 0.0 0.0 0.00 0.79 0.36 98 1018.4
20260504184521 16 0.0 0.0 0.00 0.79 0.36 98 1018.3
20260504183701 16 0.0 0.0 0.00 0.79 0.36 98 1018.3
20260504182522 16 0.0 0.0 0.00 0.79 0.36 98 1018.2
20260504181842 16 0.0 0.0 0.00 0.79 0.36 98 1018.1
20260504180701 16 0.0 0.0 0.00 0.79 0.36 98 1018.1
20260504175521 16 0.0 0.0 0.00 0.79 0.36 98 1018.0
20260504174521 16 0.0 0.0 0.00 0.79 0.36 98 1017.8
20260504173522 16 0.0 0.0 0.00 0.79 0.36 98 1017.7
20260504172521 16 0.0 0.0 0.00 0.79 0.36 98 1017.8
20260504171701 16 0.0 0.0 0.00 0.79 0.36 98 1017.7
20260504170521 16 0.0 0.0 0.00 0.79 0.36 98 1017.6
20260504150521 17 0.0 0.0 0.08 0.51 0.08 97 1018.7
20260504140520 16 0.0 0.0 0.00 0.43 0.00 97 1017.9
20260504130701 17 0.0 0.0 0.03 0.43 0.43 97 1017.7
20260504110521 17 0.0 0.0 0.00 0.41 0.41 96 1018.1
20260504100521 17 0.0 0.0 0.08 0.41 0.41 95 1018.1
20260504081522 18 0.0 0.0 0.05 0.30 0.30 93 1017.4
20260504080523 18 0.0 0.0 0.08 0.30 0.30 93 1017.4
20260504050522 21 0.0 0.0 0.05 0.05 0.05 84 1016.7
20260504045523 21 0.0 0.0 0.05 0.05 0.05 82 1016.6
20260504044705 21 0.0 0.0 0.03 0.03 0.03 79 1016.7
20260504043522 21 0.0 0.0 0.00 0.00 0.00 78 1016.7
20260504042703 21 0.0 0.0 0.00 0.00 0.00 78 1016.7
20260504041521 21 0.0 1.6 0.00 0.00 0.00 77 1016.7
20260504040520 21 0.0 0.0 0.00 0.00 0.00 77 1016.8
20260504035701 21 0.0 1.6 0.00 0.00 0.00 75 1016.8
20260504034522 22 0.0 1.6 0.00 0.00 0.00 74 1016.9
20260504033522 23 0.0 1.6 0.00 0.00 0.00 72 1017.2
20260504032524 23 0.0 0.0 0.00 0.00 0.00 70 1017.4
20260504031522 23 0.0 1.6 0.00 0.00 0.00 65 1017.6
20260504030522 24 0.0 1.6 0.00 0.00 0.00 64 1017.5
20260504025702 24 0.0 1.6 0.00 0.00 0.00 63 1017.6
20260504024522 25 0.0 1.6 0.00 0.00 0.00 62 1017.7
20260504023521 25 0.0 1.6 0.00 0.00 0.00 59 1017.8
20260504022522 26 0.0 3.2 0.00 0.00 0.00 57 1017.9
20260504021522 26 0.0 1.6 0.00 0.00 0.00 55 1017.9
20260504020522 27 0.0 3.2 0.00 0.00 0.00 55 1018.0
20260504015520 26 0.0 3.2 0.00 0.00 0.00 54 1018.2
20260504014521 26 0.0 1.6 0.00 0.00 0.00 53 1018.2
20260504013522 26 0.0 1.6 0.00 0.00 0.00 53 1018.4
20260504012521 27 0.0 1.6 0.00 0.00 0.00 52 1018.4
20260504011521 27 0.0 1.6 0.00 0.00 0.00 53 1018.6
20260504010702 27 0.0 3.2 0.00 0.00 0.00 54 1018.8
20260504005522 27 0.0 1.6 0.00 0.00 0.00 53 1018.8
20260504004522 26 0.0 0.0 0.00 0.00 0.00 58 1018.8
20260504003522 25 0.0 0.0 0.00 0.00 0.00 60 1018.9
20260504002521 25 0.0 0.0 0.00 0.00 0.00 60 1018.9
20260504001522 24 0.0 0.0 0.00 0.00 0.00 62 1018.8
20260504000521 23 0.0 0.0 0.00 0.00 0.00 64 1018.7
20260503235522 23 0.0 0.0 0.00 0.00 0.00 67 1018.7
20260503234522 22 0.0 0.0 0.00 0.00 0.00 72 1018.7
20260503233521 21 0.0 0.0 0.00 0.00 0.00 76 1018.7
20260503232521 19 0.0 0.0 0.00 0.00 0.00 84 1018.6
20260503231521 17 0.0 0.0 0.00 0.00 0.00 94 1018.7
20260503230522 16 0.0 0.0 0.00 0.00 0.00 97 1018.5
20260503225702 15 0.0 0.0 0.00 0.00 0.00 97 1018.8
20260503224521 14 0.0 0.0 0.00 0.00 0.00 97 1018.9
20260503223521 14 0.0 0.0 0.00 0.00 0.00 98 1019.0
20260503222521 14 0.0 0.0 0.00 0.00 0.00 98 1019.0
20260503221523 13 0.0 0.0 0.00 0.00 0.00 98 1019.0
20260503220521 13 0.0 0.0 0.00 0.00 0.00 98 1019.0
20260503215522 12 0.0 0.0 0.00 0.00 0.00 98 1019.0
20260503214702 12 0.0 0.0 0.00 0.00 0.00 97 1018.8
20260503213842 11 0.0 0.0 0.00 0.00 0.00 97 1018.9
20260503212521 11 0.0 0.0 0.00 0.00 0.00 97 1018.8
20260503211521 10 0.0 0.0 0.00 0.00 0.00 97 1018.7
20260503210521 10 0.0 0.0 0.00 0.00 0.00 97 1018.6